This is the latest recevied weather packets stored in our database for station/object OK1CBR-13. If no packets are shown the sender has not sent any weather packets the latest 10 day(s).
| Time | Temp. | Humidity | Pressure | Rain* | Wind** | Luminosity | Snow |
|---|---|---|---|---|---|---|---|
| 1778086654 | 14.44° C | 10% | - | - | - | - | - |
| 1778086054 | 16.11° C | 97% | 1006.1 hPa | - | - | - | - |
| 1778085454 | 16.11° C | 97% | 1004.8 hPa | - | - | - | - |
| 1778084854 | 16.67° C | 98% | 1005 hPa | - | - | - | - |
| 1778084254 | 17.22° C | 97% | 1005.4 hPa | - | - | - | - |
| 1778083654 | 17.22° C | 96% | 1005.9 hPa | - | - | - | - |
| 1778083057 | 17.78° C | 89% | 1006.1 hPa | - | - | - | - |
| 1778082453 | 18.33° C | 90% | 1005.2 hPa | - | - | - | - |
| 1778081853 | 18.33° C | 88% | 1005.2 hPa | - | - | - | - |
| 1778081253 | 18.33° C | 85% | 1005.3 hPa | - | - | - | - |
| 1778080653 | 18.33° C | 81% | 1005.6 hPa | - | - | - | - |
| 1778079453 | 23.89° C | 40% | 1005.8 hPa | - | - | - | - |
| 1778078853 | 25° C | 37% | 1005.4 hPa | - | - | - | - |
| 1778078253 | 25.56° C | 38% | 1005.4 hPa | - | - | - | - |
| 1778077653 | 25.56° C | 36% | 1005.6 hPa | - | - | - | - |
| 1778077054 | 26.11° C | 35% | 1005.6 hPa | - | - | - | - |
| 1778076453 | 26.67° C | 36% | 1005.7 hPa | - | - | - | - |
| 1778075853 | 26.11° C | 36% | 1005.7 hPa | - | - | - | - |
| 1778075253 | 25° C | 37% | 1005.9 hPa | - | - | - | - |
| 1778074653 | 25° C | 37% | 1006 hPa | - | - | - | - |
| 1778074053 | 25.56° C | 37% | 1006.1 hPa | - | - | - | - |
| 1778073453 | 25.56° C | 37% | 1006.4 hPa | - | - | - | - |
| 1778072853 | 24.44° C | 40% | 1006.5 hPa | - | - | - | - |
| 1778072253 | 24.44° C | 39% | 1006.6 hPa | - | - | - | - |
| 1778071653 | 23.33° C | 42% | 1006.7 hPa | - | - | - | - |
* Rain since midnight (hover to see other rain measurements)
** Current wind speed in m/s (hover to see current wind gust speed)